Regional Weather Roundup
Issued by NWS

Home | Current Version | Previous Version | Text Only | Print | Product List | Glossary On
Versions: 1 2 3 4 5 6 7 8 9 10 11 12 13 14 15 16 17 18 19 20 21 22 23 24 25 26 27 28 29 30 31 32 33 34 35 36 37 38 39 40 41 42 43 44 45 46 47 48 49 50
000
ASUS44 KFWD 211815
RWRTX
NORTH TEXAS HOURLY WEATHER ROUNDUP
NATIONAL WEATHER SERVICE FORT WORTH TX
100 PM CDT SUN SEP 21 2014

NOTE: "FAIR" INDICATES FEW OR NO CLOUDS BELOW 12,000 FEET WITH NO
SIGNIFICANT WEATHER AND/OR OBSTRUCTIONS TO VISIBILITY.

TXZ118-119-211900-
DALLAS/FORT WORTH METROPLEX

CITY           SKY/WX    TMP DP  RH WIND       PRES   REMARKS
DFW AIRPORT    MOSUNNY   90  64  42 E6        30.09F HX  91
6HR MIN TEMP:  71; 6HR MAX TEMP:  90;

DALLAS LOVE    MOSUNNY   90  65  43 CALM      30.09F HX  92
6HR MIN TEMP:  70; 6HR MAX TEMP:  90;

FTW MEACHAM    SUNNY     89  64  43 SE8       30.09F HX  90
6HR MIN TEMP:  70; 6HR MAX TEMP:  89;

DAL-EXECUTIVE  SUNNY     91  63  39 S7        30.09F HX  92
6HR MIN TEMP:  70; 6HR MAX TEMP:  91;

FTW-ALLIANCE   MOSUNNY   90  61  37 VRB3      30.09F HX  90
6HR MIN TEMP:  63; 6HR MAX TEMP:  91;

FTW-NAS-JRB    MOSUNNY   92  63  38 VRB5      30.13F HX  93
6HR MIN TEMP:  72; 6HR MAX TEMP:  93;

FTW-SPINKS     MOSUNNY   90  63  40 CALM      30.11F HX  90
ARLINGTON      SUNNY     89  63  41 E7        30.09F HX  90
6HR MIN TEMP:  65; 6HR MAX TEMP:  90;

GRAND PRAIRIE  SUNNY     90  63  40 MISG      30.10F HX  90
MESQUITE       MOSUNNY   88  63  42 CALM      30.09F
LANCASTER      MOSUNNY   89  62  40 E5        30.10S
6HR MIN TEMP:  64; 6HR MAX TEMP:  89;

$$

TXZ091>094-102>105-117-120-121-131>134-211900-
NORTH CENTRAL TEXAS

CITY           SKY/WX    TMP DP  RH WIND       PRES   REMARKS
SHRMAN/DENISON SUNNY     88  64  45 SW5       30.11F
6HR MIN TEMP:  68; 6HR MAX TEMP:  88;

GAINESVILLE    SUNNY     87  63  44 SW3       30.12F
6HR MIN TEMP:  65; 6HR MAX TEMP:  87;

BOWIE          SUNNY     88  62  42 S6        30.11F
6HR MIN TEMP:  64; 6HR MAX TEMP:  88;

BRIDGEPORT     SUNNY     88  62  41 NE5       30.12F
6HR MIN TEMP:  63; 6HR MAX TEMP:  88;

DECATUR        MOSUNNY   86  61  42 CALM      30.11F
6HR MIN TEMP:  71; 6HR MAX TEMP:  86;

DENTON         SUNNY     89  61  38 CALM      30.09F
6HR MIN TEMP:  63; 6HR MAX TEMP:  90;

MCKINNEY       SUNNY     89  63  41 S5        30.09F HX  90
6HR MIN TEMP:  65; 6HR MAX TEMP:  90;

GREENVILLE     MOSUNNY   90  59  35 SE3       30.09F
ROCKWALL       SUNNY     88  66  48 W5        30.08F HX  90
6HR MIN TEMP:  68; 6HR MAX TEMP:  88;

TERRELL        SUNNY     91  62  37 VRB3      30.09F HX  91
6HR MIN TEMP:  68; 6HR MAX TEMP:  92;

WAXAHACHIE     SUNNY     89  60  37 SW3       30.10F
6HR MIN TEMP:  66; 6HR MAX TEMP:  89;

CLEBURNE       SUNNY     88  64  45 E8G14     30.12S
GRANBURY       SUNNY     89  63  40 E7        30.11F HX  90
6HR MIN TEMP:  67; 6HR MAX TEMP:  89;

$$

TXZ083>090-098>101-113>116-127>130-139>142-154-155-211900-
WESTERN NORTH TEXAS

CITY           SKY/WX    TMP DP  RH WIND       PRES   REMARKS
WICHITA FALLS  MOSUNNY   89  66  46 CALM      30.10F HX  91
6HR MIN TEMP:  69; 6HR MAX TEMP:  90;

WF-KICKAPOO    SUNNY     88  62  42 CALM      30.12F
6HR MIN TEMP:  69; 6HR MAX TEMP:  89;

VERNON         PTSUNNY   88  67  48 CALM      30.13S HX  91
6HR MIN TEMP:  71; 6HR MAX TEMP:  88;

ABILENE        SUNNY     85  65  51 MISG      30.14F
6HR MIN TEMP:  69; 6HR MAX TEMP:  86;

ABILENE-DYESS  SUNNY     85  57  37 SE8       30.13F
6HR MIN TEMP:  69; 6HR MAX TEMP:  85;

BRECKENRIDGE   MOSUNNY   89  61  38 S5        30.11F
6HR MIN TEMP:  70; 6HR MAX TEMP:  89;

GRAHAM         SUNNY     90  58  34 NE3       30.09F
6HR MIN TEMP:  67; 6HR MAX TEMP:  90;

MINERAL WELLS  SUNNY     89  61  38 VRB3      30.09F
6HR MIN TEMP:  64; 6HR MAX TEMP:  89;

STEPHENVILLE   MOSUNNY   86  63  45 CALM      30.14F
6HR MIN TEMP:  68; 6HR MAX TEMP:  86;

COMANCHE       PTSUNNY   87  64  46 NW6       30.14S
6HR MIN TEMP:  68; 6HR MAX TEMP:  87;

BROWNWOOD      MOSUNNY   84  66  54 CALM      30.12F
COLEMAN        MOSUNNY   85  65  51 E6        30.14F
6HR MIN TEMP:  71; 6HR MAX TEMP:  85;

BRADY          PTSUNNY   82  66  57 E6        30.14S
$$

TXZ143>147-156>162-174-175-211900-
CENTRAL TEXAS

CITY           SKY/WX    TMP DP  RH WIND       PRES   REMARKS
WACO           MOSUNNY   89  66  46 VRB6      30.09F HX  91
6HR MIN TEMP:  67; 6HR MAX TEMP:  89;

WACO-TSTC      MOSUNNY   88  66  48 CALM      30.08F HX  90
WACO-MCGREGOR  SUNNY     90  64  43 NE5       30.10S HX  91
6HR MIN TEMP:  66; 6HR MAX TEMP:  90;

HILLSBORO      MOSUNNY   87  62  43 CALM      30.10S
6HR MIN TEMP:  68; 6HR MAX TEMP:  90;

CORSICANA      MOSUNNY   90  64  42 E6        30.09F HX  91
6HR MIN TEMP:  68; 6HR MAX TEMP:  90;

MEXIA          SUNNY     86  67  53 N3        30.08F
6HR MIN TEMP:  68; 6HR MAX TEMP:  86;

HEARNE         PTSUNNY   87  69  54 NE5       30.08F HX  91
6HR MIN TEMP:  68; 6HR MAX TEMP:  87;

CAMERON        PTSUNNY   89  68  50 E9        30.07F HX  92
6HR MIN TEMP:  70; 6HR MAX TEMP:  89;

TEMPLE         SUNNY     88  66  48 N5        30.08F HX  90
6HR MIN TEMP:  70; 6HR MAX TEMP:  88;

KILLEEN        PTSUNNY   86  66  51 E5        30.10F
KILLEEN-SKYLRK MOSUNNY   88  66  48 E6        30.09F HX  90
6HR MIN TEMP:  70; 6HR MAX TEMP:  88;

FORT HOOD      SUNNY     90  67  46 VRB3      30.09F HX  93
6HR MIN TEMP:  72; 6HR MAX TEMP:  92;

GATESVILLE     SUNNY     86  66  51 E3        30.12F
HAMILTON       SUNNY     88  64  44 E8        30.13F
6HR MIN TEMP:  69; 6HR MAX TEMP:  88;

LAMPASAS       MOSUNNY   85  70  59 E8        30.11S HX  90
6HR MIN TEMP:  71; 6HR MAX TEMP:  85;

$$

TXZ095>097-106>112-122>126-135>138-148>153-164>167-211900-
EAST TEXAS

CITY           SKY/WX    TMP DP  RH WIND       PRES   REMARKS
PARIS          SUNNY     88  64  45 NW6       30.10F
6HR MIN TEMP:  70; 6HR MAX TEMP:  88;

SULPHUR SPRNGS MOSUNNY   90  62  38 CALM      30.10F HX  90
6HR MIN TEMP:  68; 6HR MAX TEMP:  91;

MOUNT PLEASANT MOSUNNY   90  64  42 W6        30.09F HX  91
6HR MIN TEMP:  65; 6HR MAX TEMP:  90;

GILMER         SUNNY     90  64  43 CALM      30.09F HX  91
MINEOLA        MOSUNNY   88  66  48 S5        30.09F HX  90
TYLER          SUNNY     90  66  45 E6        30.09F HX  92
6HR MIN TEMP:  69; 6HR MAX TEMP:  90;

LONGVIEW       MOSUNNY   90  66  45 VRB3      30.07F HX  92
6HR MIN TEMP:  67; 6HR MAX TEMP:  90;

MARSHALL       PTSUNNY   94  66  40 W6        30.08F HX  96
6HR MIN TEMP:  68; 6HR MAX TEMP:  94;

ATHENS         SUNNY     88  63  42 CALM      30.07F
PALESTINE      SUNNY     88  66  48 CALM      30.09F HX  90
JACKSONVILLE   SUNNY     88  62  41 CALM      30.11F
HENDERSON      SUNNY     88  66  47 NW6       30.09F HX  90
6HR MIN TEMP:  65; 6HR MAX TEMP:  88;

NACOGDOCHES    MOSUNNY   90  68  48 NE3       30.08F HX  93
6HR MIN TEMP:  63; 6HR MAX TEMP:  90;

LUFKIN         PTSUNNY   91  67  44 VRB5      30.07F HX  94
6HR MIN TEMP:  68; 6HR MAX TEMP:  91;

$$

SUPPLEMENTAL OBSERVATIONS (CENTRAL)

CITY           SKY/WX    TMP DP  RH WIND       PRES   REMARKS
LAKE TEXOMA      N/A     82  64  54 NW7         N/A
CADDO GRASSLND   N/A     90  66  45 N5          N/A  HX  92
PAT MAYSE LAKE   N/A     88  66  48 W3          N/A  HX  90
GREENVILLE       N/A     91  63  38 N3          N/A  HX  92
CEDAR HILL       N/A     91  66  43 NW5         N/A  HX  94
PALESTINE        N/A     91  66  43 NE5         N/A  HX  94
LAKE LIMESTONE   N/A     90  64  43 N3G13       N/A  HX  91
MCGREGOR         N/A     88  64  45 E6          N/A
TEMPLE           N/A     88  66  48 E8          N/A  HX  90
$$

SUPPLEMENTAL OBSERVATIONS (WEST)



USA.gov is the U.S. government's official web portal to all federal, state and local government web resources and services.